Overview Statistics Trail Chart Weather Telemetry Raw packets
 

This is the latest recevied weather packets stored in our database for station/object KC1TEM-13. If no packets are shown the sender has not sent any weather packets the latest 10 day(s).

<< 24 25 26 27 28 29 30 >>
Time Temp. Humidity Pressure Rain* Wind** Luminosity Snow
1788452138 19.44° C 92% 1014.1 hPa 0 mm - 217 W/m² -
1788451834 19.44° C 95% 1014.1 hPa 0 mm - 224 W/m² -
1788451532 19.44° C 94% 1014.2 hPa 0 mm - 174 W/m² -
1788451227 19.44° C 93% 1014.5 hPa 0 mm - 142 W/m² -
1788450926 19.44° C 94% 1014.3 hPa 0 mm - 235 W/m² -
1788450622 19.44° C 93% 1014.4 hPa 0 mm - 216 W/m² -
1788450318 19.44° C 94% 1014.7 hPa 0 mm - 197 W/m² -
1788450014 19.44° C 95% 1014.8 hPa 0 mm - 326 W/m² -
1788449709 18.89° C 94% 1014.9 hPa 0 mm - 221 W/m² -
1788449405 18.89° C 95% 1014.8 hPa 0 mm - 232 W/m² -
1788449101 18.89° C 95% 1014.8 hPa 0 mm - 166 W/m² -
1788448797 18.89° C 96% 1015 hPa 0 mm - 132 W/m² -
1788448496 18.89° C 97% 1014.9 hPa 0 mm - 220 W/m² -
1788448191 18.33° C 97% 1014.6 hPa 0 mm - 199 W/m² -
1788447891 18.33° C 97% 1014.9 hPa 0 mm - 255 W/m² -
1788447586 18.33° C 97% 1015 hPa 0 mm - 59 W/m² -
1788447281 18.33° C 97% 1015.2 hPa 0 mm - 77 W/m² -
1788446976 18.33° C 98% 1015.3 hPa 0 mm - 73 W/m² -
1788446675 18.33° C 98% 1015.2 hPa 0 mm - 113 W/m² -
1788446371 18.33° C 98% 1015.2 hPa 0 mm - 124 W/m² -
1788446067 17.78° C 98% 1015.1 hPa 0 mm - 143 W/m² -
1788445763 17.78° C 98% 1015.3 hPa 0 mm - 100 W/m² -
1788445459 18.33° C 98% 1015.5 hPa 0 mm - 84 W/m² -
1788445154 17.78° C 98% 1015.6 hPa 0 mm - 91 W/m² -
1788444850 17.78° C 98% 1015.3 hPa 0 mm - 101 W/m² -

* Rain latest hour (hover to see other rain measurements)
** Current wind speed in m/s (hover to see current wind gust speed)